[[{"header":{"parameterUnit":"m.s-1","parameterCategory":2,"la1":30.2991,"la2":30.254,"lo1":-89.0895,"lo2":-89.0444,"dy":0.0017,"dx":0.0017,"nx":28,"ny":28,"refTime":"2025-04-21T09:00:00:Z","depth":"0","parameterNumber":2,"parameterNumberName":"U-component_of_CURRENTS"},"data":[0,0,0,0,0,0,0,0,0,0,0,0,0,0,0,0,0,0,0,0,0,0,0,0,0,0,0,0,0,0,0,0,0,0,0,0,0,0,0,0,0,0,0,0,0,0,0,0,0,0,0,0,0,0,0,0,0,0,0.3302,0.3304,0,0.3389,0.3389,0.3389,0.3342,0.3341,0.3339,0.3338,0.3286,0.3286,0.3286,0,0,0,0,0,0,0,0,0,0,0,0,0,0.3057,0.3061,0.3302,0.3304,0.3306,0.3389,0.3389,0.3389,0.3342,0.334,0.3339,0.3337,0.3286,0.3286,0.3286,0,0,0,0,0,0,0,0,0,0,0,0,0,0.3145,0.3063,0.3301,0.3301,0.3303,0.3389,0.3389,0.3389,0.3342,0.334,0.3338,0.3337,0.3286,0.3286,0.3286,0.3324,0,0,0.3285,0.3285,0,0,0,0,0,0,0,0,0.314,0.3152,0.3299,0.3301,0.3304,0.3362,0.3284,0.3364,0.3343,0.3315,0.3338,0.3336,0.3308,0.3306,0.3312,0.3321,0.3319,0.3285,0.3285,0.3285,0.3285,0,0,0,0,0,0,0,0.3134,0.3148,0.3324,0.3302,0.3305,0.3285,0.3294,0.3299,0.331,0.3317,0.3317,0.3346,0.3306,0.3312,0.331,0.3318,0.3285,0.3285,0.3285,0.3285,0.3378,0.3381,0,0,0,0,0,0,0.3152,0.3144,0.3322,0.3328,0.3228,0.3292,0.3301,0.3336,0.3313,0.3312,0.3347,0.3344,0.3314,0.3311,0.3308,0.3334,0.3285,0.3285,0.3284,0.3376,0.3379,0.3382,0,0,0,0,0,0,0.3146,0.3167,0.3319,0.3246,0.3265,0.3299,0.3338,0.3339,0.3347,0.3339,0.3333,0.3355,0.3312,0.3308,0.3316,0.3332,0.3285,0.3284,0.3373,0.3377,0.338,0.3396,0,0,0,0,0,0,0.3139,0.3164,0.3187,0.3248,0.3271,0.3374,0.3341,0.3343,0.3373,0.3368,0.3344,0.3337,0.331,0.3316,0.3315,0.333,0.3284,0.3369,0.3374,0.3379,0.3392,0.34,0.3407,0,0,0,0,0,0.313,0.3174,0.3187,0.3209,0.3303,0.3377,0.3386,0.3394,0.3376,0.3389,0.337,0.3338,0.3348,0.3318,0.3316,0.3331,0.3367,0.3373,0.3379,0.3389,0.3398,0.3406,0,0,0,0,0,0,0.3075,0.3177,0.3192,0.3263,0.332,0.3373,0.3399,0.3406,0.3405,0.3392,0.3362,0.3356,0.3368,0.3366,0.3334,0.3382,0.3357,0.3363,0.3365,0.3374,0.3381,0.3373,0.3284,0,0,0,0,0,0.3081,0.3142,0.3225,0.3281,0.3315,0.3357,0.3386,0.3397,0.3417,0.3414,0.3399,0.3394,0.3397,0.3395,0.3396,0.3422,0.3431,0.3439,0.3447,0.3452,0.3451,0.3494,0.3504,0.3401,0.3401,0.3401,0,0,0.307,0.3143,0.3171,0.3274,0.3316,0.3359,0.3366,0.3422,0.3437,0.3411,0.3412,0.3414,0.3411,0.3429,0.3437,0.3423,0.3492,0.346,0.3464,0.3459,0.3501,0.3511,0.3519,0.3405,0.3405,0.3404,0,0,0.3086,0.3153,0.32,0.3255,0.3343,0.3372,0.3393,0.345,0.3453,0.3482,0.3458,0.3476,0.3484,0.3481,0.3482,0.3542,0.3527,0.3551,0.3575,0.3617,0.3625,0.3632,0.3664,0.3673,0.3556,0.3556,0.3556,0,0.3059,0.3146,0.3221,0.3281,0.3327,0.3377,0.3419,0.3439,0.3482,0.3493,0.3484,0.3517,0.3509,0.3531,0.3545,0.3553,0.3573,0.3529,0.3623,0.363,0.3636,0.3667,0.3678,0.3558,0.3557,0.3557,0.3557,0,0.3111,0.3171,0.321,0.3296,0.335,0.3404,0.3459,0.3486,0.3502,0.3522,0.3558,0.3564,0.3582,0.3594,0.3579,0.3628,0.3625,0.362,0.3587,0.3647,0.3677,0.3687,0.356,0.3559,0.3559,0.3558,0,0,0.3048,0.3209,0.3214,0.3264,0.3365,0.3416,0.3454,0.3511,0.3526,0.3568,0.3596,0.3619,0.3631,0.3636,0.3635,0.367,0.3731,0.3664,0.3666,0.3673,0.3823,0.3718,0.3719,0.3739,0.3741,0.3742,0.3826,0,0.3049,0.3161,0.3237,0.3311,0.3371,0.3438,0.3472,0.3526,0.3554,0.3588,0.3624,0.3645,0.3644,0.3654,0.3693,0.3722,0.3759,0.3709,0.3785,0.3787,0.3667,0.3727,0.3502,0.3548,0.3836,0.3838,0.3839,0,0.3054,0.3141,0.3224,0.3345,0.3374,0.3412,0.3487,0.3521,0.3578,0.3606,0.3646,0.3666,0.3723,0.3712,0.3805,0.3774,0.3799,0.3824,0.3827,0.3726,0.37,0.3538,0.3556,0.3483,0.3854,0.3853,0.3852,0,0.2987,0.3118,0.3188,0.3231,0.3369,0.3404,0.3455,0.3519,0.3553,0.3605,0.3645,0.3705,0.3749,0.3802,0.3857,0.3836,0.3958,0.3935,0.3868,0.3861,0.3681,0.3654,0.361,0.3999,0.3998,0.3998,0.3998,0,0.2965,0.3013,0.3163,0.3206,0.3267,0.3372,0.3417,0.3466,0.3542,0.3581,0.3642,0.3686,0.3776,0.3851,0.3883,0.3912,0.3987,0.3878,0.3878,0.3682,0.3655,0.3592,0.3571,0.4001,0.4001,0.4,0.4,0,0.2877,0.2977,0.3062,0.3207,0.3242,0.3279,0.3393,0.3425,0.3507,0.3563,0.3588,0.3701,0.379,0.3874,0.3967,0.3939,0.3853,0.3966,0.3724,0.3691,0.3504,0.3492,0.334,0.3248,0.3886,0.3883,0.3882,0,0.2841,0.289,0.3033,0.3077,0.3139,0.3213,0.3262,0.3374,0.3417,0.3559,0.3586,0.3702,0.374,0.3847,0.3818,0.3847,0.3795,0.3658,0.356,0.3464,0.3454,0.3351,0.3279,0.3344,0.3338,0.3333,0.3329,0,0.2781,0.2835,0.291,0.2997,0.306,0.3131,0.3214,0.325,0.3381,0.3438,0.3516,0.3556,0.3629,0.3538,0.3577,0.3563,0.3442,0.3554,0.3519,0.3073,0.2894,0.2813,0.3333,0.3285,0.3289,0.3293,0.3295,0.3297,0.2716,0.2744,0.2848,0.2913,0.2979,0.3036,0.3026,0.3125,0.3175,0.3205,0.3354,0.3316,0.3309,0.3297,0.3278,0.3082,0.3137,0.2965,0.2979,0.2901,0.2728,0.3144,0.3051,0.3054,0.3057,0.3059,0.3061,0,0.264,0.2697,0.2762,0.2825,0.2833,0.2915,0.2977,0.2931,0.2913,0.2985,0.2999,0.2926,0.2826,0.2814,0.2654,0.2529,0.2417,0.2479,0.2291,0.2268,0.2688,0.2579,0.2299,0.2299,0.2299,0.2299,0.2299,0.2299,0.2611,0.2642,0.268,0.2668,0.2692,0.2637,0.2633,0.2585,0.2592,0.2489,0.2401,0.2422,0.2478,0.24,0.2226,0.2163,0.2044,0.1891,0.1997,0.2307,0.2353,0.2398,0.2291,0.1955,0.1955,0.1422,0.1418,0.1415]},{"header":{"parameterUnit":"m.s-1","parameterCategory":2,"la1":30.2991,"la2":30.254,"lo1":-89.0895,"lo2":-89.0444,"dy":0.0017,"dx":0.0017,"nx":28,"ny":28,"refTime":"2025-04-21T09:00:00:Z","depth":"0","parameterNumber":3,"parameterNumberName":"V-component_of_CURRENTS"},"data":[0,0,0,0,0,0,0,0,0,0,0,0,0,0,0,0,0,0,0,0,0,0,0,0,0,0,0,0,0,0,0,0,0,0,0,0,0,0,0,0,0,0,0,0,0,0,0,0,0,0,0,0,0,0,0,0,0,0,-0.008,-0.008,0,-0.0118,-0.0118,-0.0119,-0.0157,-0.0158,-0.0159,-0.0159,-0.0196,-0.0196,-0.0196,0,0,0,0,0,0,0,0,0,0,0,0,0,0.0015,0.0013,-0.008,-0.0081,-0.0081,-0.0118,-0.0118,-0.0119,-0.0157,-0.0158,-0.0159,-0.016,-0.0196,-0.0196,-0.0196,0,0,0,0,0,0,0,0,0,0,0,0,0,-0.0024,0.0012,-0.008,-0.0106,-0.0109,-0.0118,-0.0118,-0.0119,-0.0157,-0.0158,-0.0159,-0.016,-0.0196,-0.0196,-0.0197,-0.0179,0,0,-0.0198,-0.0198,0,0,0,0,0,0,0,0,-0.0021,-0.0027,-0.0102,-0.0104,-0.0108,-0.0136,-0.0098,-0.0139,-0.0157,-0.0137,-0.016,-0.0161,-0.0176,-0.0178,-0.018,-0.018,-0.0182,-0.0198,-0.0198,-0.0199,-0.0199,0,0,0,0,0,0,0,-0.0019,-0.0025,-0.0093,-0.0102,-0.0106,-0.0097,-0.0104,-0.0106,-0.0149,-0.0139,-0.0142,-0.0149,-0.0177,-0.018,-0.0182,-0.0182,-0.0198,-0.0198,-0.0199,-0.0199,-0.0217,-0.0217,0,0,0,0,0,0,-0.002,-0.0023,-0.0092,-0.0094,-0.0068,-0.0099,-0.0106,-0.0124,-0.0149,-0.0154,-0.0148,-0.0151,-0.0178,-0.0181,-0.0183,-0.0185,-0.0199,-0.0199,-0.0199,-0.0217,-0.0217,-0.0217,0,0,0,0,0,0,-0.0018,-0.0026,-0.009,-0.006,-0.0068,-0.01,-0.0119,-0.0124,-0.0129,-0.0156,-0.0161,-0.0148,-0.0179,-0.0182,-0.0189,-0.0186,-0.0199,-0.02,-0.0217,-0.0217,-0.0217,-0.0175,0,0,0,0,0,0,-0.0015,-0.0025,-0.0029,-0.0061,-0.007,-0.0089,-0.0118,-0.0124,-0.0132,-0.0136,-0.0157,-0.0162,-0.018,-0.0188,-0.019,-0.0187,-0.02,-0.0216,-0.0217,-0.0217,-0.0177,-0.0174,-0.0172,0,0,0,0,0,-0.0012,-0.0014,-0.0029,-0.0037,-0.0078,-0.0088,-0.0091,-0.0116,-0.0131,-0.0124,-0.0148,-0.0161,-0.0192,-0.0188,-0.019,-0.0187,-0.0216,-0.0217,-0.0217,-0.0178,-0.0175,-0.0172,0,0,0,0,0,0,0.0033,-0.0019,-0.0037,-0.0053,-0.0067,-0.0096,-0.0092,-0.0109,-0.0121,-0.0125,-0.0154,-0.016,-0.0167,-0.0182,-0.0177,-0.0197,-0.021,-0.021,-0.0179,-0.0177,-0.0175,-0.0151,-0.02,0,0,0,0,0,0.0039,0.0019,-0.0018,-0.0026,-0.0035,-0.0061,-0.0066,-0.0082,-0.0102,-0.0108,-0.0127,-0.015,-0.0169,-0.0176,-0.0191,-0.0191,-0.0187,-0.0195,-0.0193,-0.0191,-0.0175,-0.0176,-0.0172,-0.0219,-0.0219,-0.0219,0,0,0.0056,0.0025,0.0015,-0.0018,-0.0032,-0.0034,-0.0066,-0.007,-0.0072,-0.0108,-0.0112,-0.0137,-0.0167,-0.0176,-0.0181,-0.0188,-0.0174,-0.0192,-0.0189,-0.0174,-0.0176,-0.0171,-0.0167,-0.0219,-0.0219,-0.0219,0,0,0.0087,0.0052,0.0049,0.0037,0.0014,-0.0005,-0.0005,-0.0032,-0.0044,-0.005,-0.0085,-0.0103,-0.0127,-0.0149,-0.0164,-0.0156,-0.0162,-0.017,-0.0138,-0.014,-0.0135,-0.0131,-0.0107,-0.0101,-0.017,-0.017,-0.017,0,0.0115,0.0096,0.0054,0.0054,0.0049,0.0009,0.0019,0.0003,-0.0021,-0.0021,-0.0046,-0.0082,-0.0113,-0.0122,-0.0132,-0.0148,-0.0143,-0.0144,-0.0134,-0.0131,-0.0127,-0.0103,-0.0097,-0.0168,-0.0169,-0.0169,-0.0169,0,0.0143,0.0132,0.0134,0.011,0.0104,0.0106,0.0074,0.0072,0.0047,0.003,0.0018,-0.0027,-0.0046,-0.007,-0.0102,-0.0099,-0.0099,-0.0129,-0.0135,-0.0119,-0.0096,-0.009,-0.0166,-0.0166,-0.0167,-0.0167,0,0,0.0193,0.0159,0.0162,0.0165,0.0132,0.0135,0.0131,0.0124,0.0137,0.0098,0.0116,0.0055,0.0031,0.0011,-0.0033,-0.0045,-0.0027,-0.0078,-0.0079,-0.0041,-0.0007,-0.0002,0.0004,-0.0057,-0.0056,-0.0056,0.0005,0,0.0232,0.0241,0.0211,0.0234,0.0238,0.0205,0.0209,0.0199,0.0183,0.0192,0.0141,0.0132,0.006,0.0049,0.0026,-0.0013,-0.0013,-0.0039,-0.0038,-0.0037,-0.0025,0.001,0.003,0.0086,0.0011,0.0012,0.0012,0,0.0269,0.0268,0.029,0.0291,0.0293,0.0299,0.031,0.0313,0.0305,0.0291,0.0272,0.0236,0.0206,0.0142,0.01,0.0086,0.0048,0.0016,0.0017,0.0014,-0.0022,0.0054,0.0099,-0.0001,0.0021,0.002,0.0019,0,0.0322,0.0327,0.0345,0.0344,0.0338,0.035,0.0351,0.0348,0.0369,0.0361,0.0383,0.0331,0.0325,0.0259,0.0181,0.0142,0.0154,0.0093,0.0071,0.0072,0.0087,0.0088,0.0047,0.0081,0.0081,0.008,0.008,0,0.0364,0.0385,0.0372,0.0387,0.0424,0.0403,0.0449,0.0443,0.046,0.0517,0.0441,0.0485,0.0352,0.0336,0.0243,0.0192,0.0204,0.0101,0.009,0.0102,0.0103,0.0014,-0.0058,0.0083,0.0082,0.0082,0.0081,0,0.0412,0.0402,0.0435,0.0442,0.0447,0.0479,0.051,0.055,0.0551,0.0629,0.0632,0.0612,0.0594,0.0483,0.0401,0.0293,0.018,0.0206,0.0242,0.0234,0.0089,0.0019,-0.0009,-0.0053,0.0189,0.0189,0.0189,0,0.0435,0.045,0.0481,0.0511,0.0515,0.0552,0.0583,0.0588,0.0644,0.0728,0.0784,0.0788,0.0828,0.0712,0.0523,0.0388,0.0255,0.0286,0.0199,0.0107,0.0021,-0.0028,-0.0068,0.0245,0.0246,0.0246,0.0247,0,0.048,0.049,0.0518,0.0576,0.0616,0.067,0.0722,0.0783,0.0829,0.0914,0.1039,0.1086,0.0981,0.0858,0.0643,0.0523,0.0214,0.0295,0.0188,0.0061,0.0019,-0.0036,0.0191,0.0253,0.0252,0.0252,0.0252,0.0251,0.0519,0.0547,0.0585,0.0647,0.0707,0.0797,0.0865,0.0951,0.1077,0.1233,0.1256,0.1365,0.1136,0.0857,0.0668,0.0308,0.0286,0.0181,0.0109,0.0072,0.0007,0.0262,0.0308,0.0307,0.0307,0.0307,0.0307,0,0.056,0.059,0.0653,0.0738,0.083,0.0841,0.0968,0.106,0.1243,0.139,0.1517,0.1491,0.1225,0.0888,0.0411,0.0162,0.005,0.0019,-0.0058,-0.009,0.0137,0.0115,0.0136,0.0136,0.0136,0.0137,0.0137,0.0137,0.0583,0.064,0.0672,0.0826,0.09,0.1029,0.1115,0.1263,0.1394,0.1597,0.1679,0.1722,0.1469,0.0639,0.0095,-0.0033,-0.0219,-0.0247,-0.0344,-0.0214,-0.0205,-0.0197,-0.0234,-0.0287,-0.0287,-0.0532,-0.0535,-0.0537]}],[{"header":{"parameterUnit":"m.s-1","parameterCategory":2,"la1":30.2991,"la2":30.254,"lo1":-89.0895,"lo2":-89.0444,"dy":0.0017,"dx":0.0017,"nx":28,"ny":28,"refTime":"2025-04-21T09:00:00:Z","depth":"2","parameterNumber":2,"parameterNumberName":"U-component_of_CURRENTS"},"data":[0,0,0,0,0,0,0,0,0,0,0,0,0,0,0,0,0,0,0,0,0,0,0,0,0,0,0,0,0,0,0,0,0,0,0,0,0,0,0,0,0,0,0,0,0,0,0,0,0,0,0,0,0,0,0,0,0,0,0.2269,0.2272,0,0.2446,0.2447,0.2448,0.2398,0.2396,0.2394,0.2392,0.2441,0.2445,0.2448,0,0,0,0,0,0,0,0,0,0,0,0,0,0.2163,0.2162,0.2268,0.2272,0.2275,0.2446,0.2447,0.2448,0.2399,0.2396,0.2393,0.2391,0.244,0.2444,0.2448,0,0,0,0,0,0,0,0,0,0,0,0,0,0.2247,0.2162,0.2268,0.2283,0.2287,0.2446,0.2447,0.2448,0.2399,0.2396,0.2393,0.239,0.2439,0.2444,0.2449,0.2547,0,0,0.2464,0.2467,0,0,0,0,0,0,0,0,0.2242,0.2248,0.2277,0.2282,0.2287,0.241,0.243,0.248,0.24,0.2341,0.2392,0.2388,0.2432,0.2437,0.2458,0.2549,0.2551,0.2465,0.2468,0.247,0.2472,0,0,0,0,0,0,0,0.2235,0.2242,0.2323,0.2281,0.2288,0.2377,0.2381,0.2439,0.2388,0.2345,0.2346,0.2391,0.2431,0.2453,0.2459,0.2552,0.2465,0.2469,0.2472,0.2474,0.2654,0.2656,0,0,0,0,0,0,0.2233,0.2235,0.2318,0.233,0.2273,0.2381,0.2385,0.2361,0.239,0.2397,0.2394,0.2389,0.2446,0.2453,0.246,0.2531,0.247,0.2475,0.2478,0.2653,0.2655,0.2657,0,0,0,0,0,0,0.2229,0.2236,0.2311,0.2304,0.2321,0.2386,0.2361,0.2367,0.2388,0.2432,0.2431,0.241,0.2444,0.2453,0.2477,0.2533,0.2477,0.2482,0.2651,0.2653,0.2656,0.2702,0,0,0,0,0,0,0.2224,0.2231,0.2243,0.2301,0.2322,0.2388,0.2366,0.2374,0.2429,0.2422,0.2447,0.2447,0.2442,0.2469,0.2482,0.2539,0.2486,0.2648,0.2652,0.2655,0.2698,0.2706,0.2712,0,0,0,0,0,0.2218,0.2279,0.2239,0.2254,0.2321,0.2391,0.2407,0.2437,0.2433,0.2441,0.2439,0.2446,0.25,0.2474,0.2489,0.2549,0.2647,0.2651,0.2655,0.2695,0.2704,0.2712,0,0,0,0,0,0,0.2249,0.2283,0.224,0.2302,0.2322,0.2387,0.246,0.2453,0.2467,0.2463,0.2465,0.2467,0.2516,0.2526,0.2498,0.261,0.2579,0.2586,0.2605,0.2614,0.2621,0.2608,0.249,0,0,0,0,0,0.2256,0.2279,0.2308,0.2342,0.2376,0.2406,0.2455,0.2447,0.2474,0.2477,0.2504,0.2527,0.2554,0.257,0.2602,0.2668,0.2665,0.2717,0.2724,0.273,0.2729,0.2761,0.277,0.2669,0.2669,0.2669,0,0,0.2269,0.23,0.2307,0.2349,0.2385,0.243,0.2422,0.2489,0.2505,0.2487,0.2546,0.2563,0.2576,0.263,0.2657,0.2639,0.2759,0.2735,0.2739,0.2735,0.2766,0.2776,0.2784,0.2672,0.2672,0.2671,0,0,0.2305,0.234,0.2355,0.2391,0.2448,0.2484,0.2498,0.2555,0.2563,0.2612,0.2598,0.2625,0.2704,0.27,0.2711,0.2784,0.2797,0.2821,0.2849,0.2881,0.2889,0.2896,0.2905,0.2913,0.2822,0.2822,0.2822,0,0.2317,0.2331,0.2376,0.2411,0.2477,0.2502,0.2541,0.2568,0.2612,0.2631,0.2631,0.2715,0.2734,0.276,0.2784,0.2802,0.2816,0.2813,0.2889,0.2896,0.2902,0.291,0.2918,0.2825,0.2824,0.2824,0.2824,0,0.2346,0.237,0.2419,0.2444,0.2513,0.2576,0.2621,0.2673,0.2717,0.2721,0.2774,0.2785,0.2817,0.285,0.2846,0.2906,0.2901,0.2894,0.2862,0.2915,0.292,0.2927,0.2829,0.2828,0.2827,0.2826,0,0,0.2323,0.2411,0.2419,0.2426,0.255,0.2587,0.268,0.2744,0.2767,0.2816,0.2844,0.2902,0.2892,0.2902,0.2899,0.2936,0.3003,0.2948,0.2948,0.2948,0.307,0.295,0.2946,0.302,0.3022,0.3023,0.3054,0,0.2319,0.236,0.2445,0.2501,0.2536,0.2649,0.2721,0.2773,0.2831,0.2866,0.2876,0.2904,0.291,0.2926,0.2959,0.3007,0.3025,0.2994,0.3026,0.3027,0.2907,0.2951,0.2725,0.2724,0.3061,0.3062,0.3063,0,0.2315,0.234,0.2395,0.2493,0.253,0.2588,0.2727,0.2791,0.2859,0.2901,0.293,0.2924,0.2977,0.2967,0.305,0.3039,0.3055,0.308,0.3081,0.2955,0.2919,0.2728,0.2724,0.3075,0.3074,0.3073,0.3072,0,0.2236,0.2321,0.2364,0.2404,0.2521,0.2589,0.2682,0.2786,0.2849,0.2916,0.295,0.2979,0.3003,0.3054,0.3108,0.3097,0.3191,0.317,0.3057,0.3048,0.2851,0.2821,0.3199,0.3199,0.3199,0.3199,0.3199,0,0.223,0.2247,0.2316,0.2331,0.2394,0.2516,0.2604,0.2706,0.282,0.2873,0.2937,0.2945,0.3036,0.3081,0.3123,0.312,0.3199,0.3063,0.3051,0.286,0.2832,0.313,0.3122,0.32,0.32,0.32,0.32,0,0.2156,0.2199,0.2232,0.2326,0.2353,0.2409,0.2581,0.2619,0.2768,0.2846,0.2877,0.2956,0.3013,0.3076,0.3156,0.3119,0.3147,0.3111,0.287,0.2827,0.2973,0.2967,0.2979,0.2976,0.2972,0.2969,0.2967,0,0.2117,0.2123,0.2198,0.2208,0.2262,0.2347,0.2395,0.2574,0.2632,0.2827,0.2831,0.2912,0.2898,0.296,0.2948,0.2967,0.3058,0.274,0.2655,0.2964,0.2952,0.2951,0.295,0.242,0.2414,0.2408,0.2404,0,0.2059,0.21,0.2131,0.2149,0.2186,0.2241,0.2331,0.2357,0.2568,0.2618,0.268,0.2694,0.2736,0.2616,0.2647,0.2626,0.2726,0.2624,0.3033,0.2501,0.2437,0.2425,0.2442,0.2356,0.2361,0.2364,0.2367,0.2369,0.202,0.2034,0.2081,0.2091,0.2123,0.2137,0.2133,0.2198,0.2256,0.2323,0.2429,0.2384,0.2424,0.2301,0.2251,0.2225,0.2402,0.2304,0.2321,0.2344,0.2264,0.2196,0.2055,0.2058,0.206,0.2063,0.2065,0,0.1976,0.1991,0.2006,0.2007,0.1987,0.2062,0.2078,0.2027,0.1982,0.2063,0.2072,0.1904,0.1818,0.1886,0.1764,0.1758,0.1752,0.1685,0.1674,0.1723,0.1766,0.1657,0.1287,0.1284,0.1282,0.1279,0,0,0.1949,0.1934,0.1931,0.1867,0.1864,0.1808,0.1787,0.1713,0.1718,0.1628,0.1599,0.171,0.1807,0.1518,0.149,0.137,0.153,0.1305,0.1932,0.1967,0.2007,0.2129,0.2016,0,0,0,0,0]},{"header":{"parameterUnit":"m.s-1","parameterCategory":2,"la1":30.2991,"la2":30.254,"lo1":-89.0895,"lo2":-89.0444,"dy":0.0017,"dx":0.0017,"nx":28,"ny":28,"refTime":"2025-04-21T09:00:00:Z","depth":"2","parameterNumber":3,"parameterNumberName":"V-component_of_CURRENTS"},"data":[0,0,0,0,0,0,0,0,0,0,0,0,0,0,0,0,0,0,0,0,0,0,0,0,0,0,0,0,0,0,0,0,0,0,0,0,0,0,0,0,0,0,0,0,0,0,0,0,0,0,0,0,0,0,0,0,0,0,0.0045,0.0043,0,-0.0021,-0.0021,-0.0021,-0.0075,-0.0076,-0.0077,-0.0078,-0.015,-0.0151,-0.0152,0,0,0,0,0,0,0,0,0,0,0,0,0,0.0099,0.0099,0.0045,0.0043,0.0042,-0.0021,-0.0021,-0.0021,-0.0075,-0.0076,-0.0077,-0.0078,-0.015,-0.0151,-0.0152,0,0,0,0,0,0,0,0,0,0,0,0,0,0.0065,0.0099,0.0045,0.0004,-0.0001,-0.002,-0.0021,-0.0021,-0.0074,-0.0076,-0.0078,-0.0079,-0.015,-0.0151,-0.0152,-0.0128,0,0,-0.0156,-0.0157,0,0,0,0,0,0,0,0,0.0067,0.0063,0.0011,0.0006,0.0001,-0.0046,-0.0029,-0.0059,-0.0074,-0.004,-0.0078,-0.008,-0.0119,-0.0123,-0.0123,-0.0131,-0.0134,-0.0157,-0.0157,-0.0158,-0.0158,0,0,0,0,0,0,0,0.0069,0.0066,0.0025,0.001,0.0003,-0.002,-0.0026,-0.0034,-0.0065,-0.0043,-0.0049,-0.0065,-0.0121,-0.0121,-0.0125,-0.0135,-0.0156,-0.0158,-0.0159,-0.0159,-0.0169,-0.0169,0,0,0,0,0,0,0.0069,0.0068,0.0027,0.0022,0.0024,-0.002,-0.0027,-0.0025,-0.0065,-0.0075,-0.0063,-0.0067,-0.0118,-0.0124,-0.0128,-0.0131,-0.0158,-0.0159,-0.016,-0.017,-0.0169,-0.0169,0,0,0,0,0,0,0.0071,0.0067,0.0029,0.0038,0.0031,-0.002,-0.0017,-0.0025,-0.0033,-0.0081,-0.009,-0.0065,-0.012,-0.0126,-0.0135,-0.0134,-0.016,-0.0161,-0.017,-0.017,-0.0169,-0.0119,0,0,0,0,0,0,0.0073,0.0068,0.0067,0.0039,0.003,0.0027,-0.0017,-0.0026,-0.0043,-0.0049,-0.0085,-0.0093,-0.0122,-0.0133,-0.0136,-0.0136,-0.0162,-0.0171,-0.017,-0.0169,-0.0122,-0.0117,-0.0113,0,0,0,0,0,0.0076,0.0071,0.0068,0.0061,0.0031,0.0028,0.0023,-0.0016,-0.0042,-0.0031,-0.0063,-0.0093,-0.013,-0.0133,-0.0137,-0.0138,-0.0172,-0.017,-0.0169,-0.0124,-0.0118,-0.0113,0,0,0,0,0,0,0.0095,0.0064,0.0059,0.0047,0.0046,0.0016,0.0006,-0.0009,-0.0024,-0.0034,-0.0077,-0.0086,-0.01,-0.0117,-0.0119,-0.0138,-0.0158,-0.0158,-0.0122,-0.0117,-0.0113,-0.0099,-0.0163,0,0,0,0,0,0.0101,0.0092,0.0074,0.0071,0.0067,0.0044,0.0034,0.002,-0.0001,-0.0009,-0.0044,-0.0075,-0.0094,-0.0104,-0.0126,-0.0123,-0.0134,-0.0128,-0.0124,-0.012,-0.0112,-0.0124,-0.0119,-0.0165,-0.0165,-0.0165,0,0,0.011,0.0089,0.0085,0.0074,0.0065,0.0073,0.0036,0.0032,0.0031,-0.0013,-0.0033,-0.006,-0.0091,-0.0099,-0.0106,-0.0114,-0.0111,-0.0119,-0.0115,-0.0109,-0.0122,-0.0117,-0.0113,-0.0164,-0.0164,-0.0164,0,0,0.0132,0.0108,0.0118,0.0117,0.0105,0.009,0.0093,0.0071,0.0052,0.0046,0.0004,-0.0011,-0.0047,-0.0065,-0.0078,-0.0055,-0.0091,-0.0074,-0.0037,-0.0048,-0.0045,-0.0042,-0.0041,-0.0039,-0.0068,-0.0068,-0.0068,0,0.0146,0.0152,0.0123,0.0138,0.0132,0.0102,0.0124,0.0107,0.0082,0.0079,0.0044,0.0005,-0.0028,-0.0025,-0.0032,-0.0045,-0.0058,-0.0055,-0.0042,-0.004,-0.0037,-0.0038,-0.0035,-0.0066,-0.0066,-0.0066,-0.0066,0,0.0185,0.0188,0.0191,0.0196,0.0196,0.0204,0.0181,0.0172,0.0137,0.0125,0.0111,0.007,0.0051,0.003,-0.0001,0.0002,-0.0014,-0.0038,-0.0054,-0.003,-0.0032,-0.003,-0.0062,-0.0063,-0.0064,-0.0064,0,0,0.022,0.0218,0.0221,0.0239,0.0224,0.0236,0.0227,0.0227,0.024,0.0196,0.021,0.0156,0.0135,0.0119,0.008,0.0061,0.0058,0.0015,0.0013,0.0019,0.0036,0.0011,0.001,0.0028,0.0028,0.0028,0.0032,0,0.0261,0.0303,0.028,0.0319,0.0341,0.0306,0.0307,0.0305,0.0287,0.0291,0.0246,0.0242,0.0168,0.0163,0.0132,0.0076,0.0062,0.006,0.0009,0.0008,-0.0015,0.0011,0.0037,0.0041,0.0033,0.0033,0.0033,0,0.0305,0.0327,0.0372,0.0388,0.0394,0.0405,0.0416,0.0417,0.0413,0.0394,0.0381,0.0352,0.0318,0.0251,0.0175,0.0172,0.0109,0.0062,0.0061,0.0021,-0.0014,0.0012,0.0044,0.0036,0.0036,0.0035,0.0035,0,0.0355,0.0385,0.042,0.0427,0.0443,0.0451,0.0453,0.0458,0.0473,0.047,0.0494,0.0442,0.0427,0.0337,0.0224,0.0199,0.0144,0.0104,0.0032,0.003,0.0036,0.0034,0.0062,0.0062,0.0062,0.0062,0.0062,0,0.0393,0.0425,0.0448,0.0474,0.0522,0.0512,0.0559,0.0549,0.0565,0.062,0.0557,0.0587,0.0443,0.0395,0.0274,0.0161,0.0184,0.0049,0.003,0.0054,0.0053,0.003,0.0027,0.0062,0.0062,0.0062,0.0062,0,0.0429,0.0444,0.0496,0.0531,0.0546,0.0582,0.0617,0.0665,0.0659,0.073,0.0734,0.0694,0.0625,0.0495,0.0362,0.024,0.0129,0.0085,0.0125,0.011,0.0012,0.0011,0.0012,0.0011,0.001,0.001,0.0009,0,0.0451,0.0481,0.0544,0.059,0.0603,0.0653,0.0699,0.0703,0.0763,0.0808,0.0862,0.0818,0.0799,0.0594,0.0389,0.0201,0.0153,0.0083,0.0031,0.0026,0.0007,0.0007,0.0007,0.0067,0.0067,0.0067,0.0067,0,0.0493,0.0508,0.0552,0.0647,0.0709,0.0775,0.0844,0.09,0.0934,0.0992,0.1052,0.1038,0.0862,0.0668,0.0399,0.0264,0.0108,0.0075,0.0077,0.0065,0.0075,0.0057,0.0056,0.0067,0.0067,0.0067,0.0067,0.0067,0.0522,0.0556,0.0618,0.0704,0.0788,0.0885,0.0944,0.1027,0.1115,0.1187,0.1178,0.1141,0.0935,0.0582,0.0365,0.0127,0.0131,0.0022,0.0024,0.0025,0.002,0.0027,0.0011,0.001,0.001,0.001,0.001,0,0.0554,0.0595,0.0678,0.0784,0.088,0.091,0.1038,0.1089,0.1199,0.1253,0.1271,0.1064,0.0857,0.0614,0.0276,0.0067,0.0052,-0.0017,0.0015,0.0017,0.0018,0.0013,0.0001,0.0001,-0.0,-0.0001,0,0,0.0576,0.0644,0.0681,0.0836,0.0916,0.1028,0.1096,0.1172,0.1223,0.1256,0.1231,0.117,0.0909,0.0652,0.0389,0.0196,0.0145,0.0149,0.018,0.0251,0.0255,0.0068,0.0066,0,0,0,0,0]}],[{"header":{"parameterUnit":"m.s-1","parameterCategory":2,"la1":30.2991,"la2":30.254,"lo1":-89.0895,"lo2":-89.0444,"dy":0.0017,"dx":0.0017,"nx":28,"ny":28,"refTime":"2025-04-21T09:00:00:Z","depth":"4","parameterNumber":2,"parameterNumberName":"U-component_of_CURRENTS"},"data":[0,0,0,0,0,0,0,0,0,0,0,0,0,0,0,0,0,0,0,0,0,0,0,0,0,0,0,0,0,0,0,0,0,0,0,0,0,0,0,0,0,0,0,0,0,0,0,0,0,0,0,0,0,0,0,0,0,0,0.0893,0.0892,0,0.0919,0.092,0.0922,0.0944,0.0943,0.0942,0.094,0.0943,0.0944,0.0945,0,0,0,0,0,0,0,0,0,0,0,0,0,0.1002,0.1001,0.0893,0.0892,0.0891,0.0918,0.092,0.0922,0.0944,0.0943,0.0941,0.094,0.0943,0.0944,0.0946,0,0,0,0,0,0,0,0,0,0,0,0,0,0.0999,0.1,0.0893,0.0893,0.0892,0.0918,0.092,0.0923,0.0945,0.0943,0.0941,0.0939,0.0942,0.0944,0.0946,0.0993,0,0,0.0951,0.0952,0,0,0,0,0,0,0,0,0.0999,0.0997,0.0894,0.0893,0.0892,0.0912,0.0959,0.0939,0.0945,0.0942,0.094,0.0938,0.0921,0.0925,0.0957,0.0993,0.0993,0.0951,0.0952,0.0953,0.0954,0,0,0,0,0,0,0,0.0999,0.0997,0.0919,0.0893,0.0891,0.0938,0.0937,0.0958,0.0953,0.0942,0.0939,0.0918,0.0923,0.0955,0.0957,0.0993,0.0951,0.0953,0.0954,0.0955,0.1124,0.1127,0,0,0,0,0,0,0.0958,0.0996,0.0918,0.0918,0.0924,0.0936,0.0935,0.0921,0.0954,0.0952,0.0919,0.0918,0.0953,0.0955,0.0957,0.1039,0.0953,0.0955,0.0956,0.1121,0.1125,0.1128,0,0,0,0,0,0,0.0961,0.0952,0.0917,0.0945,0.0942,0.0934,0.0919,0.0922,0.0963,0.0933,0.0935,0.0956,0.0952,0.0954,0.1006,0.1037,0.0956,0.0957,0.1117,0.1122,0.1127,0.1186,0,0,0,0,0,0,0.0964,0.0953,0.096,0.0942,0.0938,0.0939,0.0919,0.0923,0.0943,0.0944,0.0965,0.0963,0.0951,0.1003,0.1007,0.1038,0.0959,0.1112,0.1119,0.1125,0.118,0.1193,0.1204,0,0,0,0,0,0.0968,0.0953,0.0961,0.0951,0.0937,0.0939,0.0945,0.0944,0.0947,0.0977,0.1003,0.0963,0.1046,0.1008,0.1012,0.1043,0.1109,0.1117,0.1124,0.1174,0.119,0.1203,0,0,0,0,0,0,0.101,0.0953,0.096,0.0933,0.0944,0.0936,0.0951,0.0962,0.1012,0.1019,0.1008,0.101,0.1057,0.1063,0.1021,0.1118,0.1072,0.108,0.1109,0.1123,0.1135,0.1132,0.096,0,0,0,0,0,0.102,0.1001,0.0971,0.0967,0.0962,0.0975,0.0984,0.0989,0.1006,0.1028,0.1059,0.1087,0.1096,0.1118,0.1135,0.12,0.1197,0.1227,0.1239,0.1249,0.1255,0.1288,0.1302,0.1154,0.1154,0.1153,0,0,0.1039,0.1004,0.0999,0.0977,0.0987,0.0969,0.0981,0.0996,0.1011,0.1019,0.1093,0.1124,0.1121,0.1181,0.1205,0.1189,0.1297,0.1259,0.1266,0.1267,0.1297,0.1311,0.1324,0.1159,0.1158,0.1157,0,0,0.1054,0.1037,0.1028,0.1024,0.1017,0.1,0.1005,0.1035,0.1083,0.1138,0.1152,0.122,0.125,0.1282,0.1281,0.138,0.1346,0.1389,0.1457,0.149,0.1501,0.1511,0.154,0.1552,0.1409,0.1409,0.1409,0,0.1094,0.1059,0.1038,0.1023,0.1009,0.1004,0.1001,0.1033,0.1098,0.1166,0.1157,0.1275,0.1286,0.1349,0.1394,0.1401,0.1415,0.1391,0.1501,0.1511,0.152,0.1546,0.1559,0.1413,0.1413,0.1412,0.1412,0,0.1078,0.1073,0.1066,0.1025,0.1018,0.1019,0.1015,0.1073,0.1111,0.1168,0.1286,0.1339,0.1415,0.1435,0.1435,0.1533,0.152,0.1494,0.1451,0.1538,0.1562,0.1573,0.1419,0.1417,0.1416,0.1415,0,0,0.1116,0.1069,0.1071,0.1064,0.1023,0.1007,0.1033,0.1079,0.1125,0.123,0.133,0.1405,0.1496,0.1508,0.1556,0.1605,0.1693,0.1597,0.1597,0.1602,0.1773,0.1643,0.1642,0.1684,0.1686,0.1688,0.1767,0,0.113,0.1097,0.1068,0.1045,0.1023,0.1022,0.1037,0.1088,0.1155,0.1263,0.1373,0.1467,0.15,0.1565,0.1626,0.1661,0.1726,0.1675,0.1709,0.171,0.1564,0.1652,0.1695,0.1775,0.1778,0.1779,0.1781,0,0.1112,0.1093,0.1074,0.1056,0.105,0.1037,0.1062,0.1092,0.122,0.129,0.1427,0.1519,0.1654,0.1648,0.1767,0.1734,0.178,0.1798,0.18,0.1661,0.1601,0.1672,0.1801,0.1799,0.1798,0.1796,0.1795,0,0.1103,0.1091,0.1073,0.1061,0.1032,0.1063,0.1065,0.1142,0.1205,0.1349,0.142,0.1569,0.1663,0.1728,0.1813,0.18,0.1905,0.1877,0.1809,0.18,0.1862,0.185,0.197,0.197,0.197,0.197,0.197,0,0.108,0.1077,0.108,0.1063,0.1078,0.107,0.112,0.1155,0.1253,0.1328,0.1471,0.1559,0.169,0.1785,0.183,0.1849,0.1925,0.1834,0.1815,0.189,0.188,0.187,0.1857,0.1973,0.1972,0.1972,0.1971,0,0.1051,0.1051,0.104,0.105,0.1069,0.108,0.1139,0.1174,0.1262,0.1361,0.1421,0.1586,0.168,0.1785,0.1884,0.1859,0.1885,0.1883,0.1969,0.1951,0.1757,0.1748,0.1801,0.1797,0.1794,0.1791,0.1789,0,0.1019,0.1009,0.1033,0.1037,0.1052,0.1088,0.111,0.1181,0.1219,0.1362,0.1408,0.157,0.1667,0.1707,0.18,0.1853,0.1851,0.185,0.1804,0.1766,0.1743,0.1738,0.1733,0.1784,0.1783,0.1782,0.1781,0,0.0971,0.0991,0.0982,0.1002,0.1029,0.1042,0.1093,0.1121,0.1193,0.1299,0.1373,0.146,0.1565,0.1643,0.1698,0.1738,0.1825,0.1816,0.1822,0.1779,0.1746,0.1725,0.1724,0.177,0.1772,0.1773,0.1773,0,0.0953,0.0936,0.0936,0.0946,0.0976,0.0976,0.1012,0.1047,0.1097,0.1245,0.1271,0.1421,0.1542,0.1587,0.1635,0.1653,0.164,0.1591,0.1609,0.1623,0.1528,0.1457,0.1389,0,0,0,0,0,0.093,0.0889,0.0878,0.0874,0.0898,0.092,0.0975,0.1009,0.1113,0.1127,0.1186,0.1274,0.1361,0.1453,0.1441,0.1568,0.1646,0.1547,0.1597,0.1707,0.172,0.1625,0,0,0,0,0,0,0.0903,0.0884,0.0852,0.0812,0.0805,0.0822,0.0859,0.0923,0.0934,0.1052,0.1116,0.12,0.1316,0.136,0.1422,0.1444,0.1449,0.1634,0.1631,0.17,0.1712,0.1722,0.1628,0,0,0,0,0]},{"header":{"parameterUnit":"m.s-1","parameterCategory":2,"la1":30.2991,"la2":30.254,"lo1":-89.0895,"lo2":-89.0444,"dy":0.0017,"dx":0.0017,"nx":28,"ny":28,"refTime":"2025-04-21T09:00:00:Z","depth":"4","parameterNumber":3,"parameterNumberName":"V-component_of_CURRENTS"},"data":[0,0,0,0,0,0,0,0,0,0,0,0,0,0,0,0,0,0,0,0,0,0,0,0,0,0,0,0,0,0,0,0,0,0,0,0,0,0,0,0,0,0,0,0,0,0,0,0,0,0,0,0,0,0,0,0,0,0,0.0221,0.0221,0,0.0215,0.0215,0.0214,0.0215,0.0215,0.0216,0.0216,0.0202,0.0201,0.02,0,0,0,0,0,0,0,0,0,0,0,0,0,0.0187,0.0187,0.0221,0.0221,0.0221,0.0215,0.0215,0.0214,0.0215,0.0215,0.0216,0.0216,0.0202,0.0201,0.02,0,0,0,0,0,0,0,0,0,0,0,0,0,0.019,0.0187,0.0221,0.0223,0.0224,0.0215,0.0215,0.0214,0.0215,0.0215,0.0216,0.0217,0.0202,0.0201,0.02,0.018,0,0,0.0196,0.0196,0,0,0,0,0,0,0,0,0.019,0.0191,0.0223,0.0223,0.0224,0.0219,0.0198,0.0204,0.0215,0.0214,0.0216,0.0217,0.0209,0.0207,0.02,0.018,0.0179,0.0196,0.0196,0.0195,0.0195,0,0,0,0,0,0,0,0.019,0.0191,0.0215,0.0223,0.0224,0.021,0.0211,0.0198,0.0205,0.0214,0.0215,0.022,0.0208,0.0201,0.0199,0.0179,0.0196,0.0195,0.0195,0.0194,0.0184,0.0184,0,0,0,0,0,0,0.0199,0.0191,0.0215,0.0215,0.0212,0.021,0.0211,0.0217,0.0205,0.0205,0.022,0.022,0.0202,0.0201,0.0199,0.0211,0.0195,0.0194,0.0193,0.0183,0.0184,0.0184,0,0,0,0,0,0,0.0198,0.0201,0.0215,0.0205,0.0207,0.0211,0.0217,0.0217,0.0217,0.021,0.0209,0.0222,0.0203,0.02,0.0194,0.0209,0.0193,0.0192,0.0183,0.0184,0.0184,0.0212,0,0,0,0,0,0,0.0197,0.0201,0.021,0.0206,0.0208,0.0229,0.0217,0.0216,0.022,0.0221,0.0211,0.021,0.0203,0.0196,0.0193,0.0207,0.0191,0.0182,0.0183,0.0184,0.021,0.0213,0.0216,0,0,0,0,0,0.0196,0.0211,0.021,0.0214,0.0219,0.0231,0.023,0.0232,0.022,0.0231,0.0214,0.0211,0.0199,0.0195,0.0191,0.0206,0.0182,0.0183,0.0184,0.0209,0.0212,0.0216,0,0,0,0,0,0,0.0204,0.0213,0.0212,0.023,0.0238,0.0233,0.0241,0.0233,0.0226,0.0226,0.0207,0.0205,0.0208,0.02,0.0195,0.0206,0.0194,0.0194,0.0214,0.0217,0.022,0.024,0.0191,0,0,0,0,0,0.0209,0.0219,0.0227,0.024,0.0247,0.024,0.0243,0.0247,0.024,0.0238,0.0227,0.0216,0.0207,0.0207,0.02,0.0199,0.018,0.0209,0.0212,0.0214,0.0229,0.0193,0.0193,0.0188,0.0188,0.0188,0,0,0.0215,0.022,0.0226,0.0242,0.0243,0.0261,0.0243,0.0258,0.0275,0.0236,0.0247,0.0224,0.0208,0.0211,0.0212,0.0208,0.0206,0.0215,0.0217,0.0231,0.0194,0.0194,0.0195,0.0188,0.0188,0.0188,0,0,0.0231,0.0237,0.0252,0.0265,0.0281,0.028,0.0287,0.0289,0.0295,0.0299,0.0273,0.0258,0.0249,0.0239,0.0231,0.0244,0.0219,0.0243,0.0275,0.024,0.024,0.024,0.0215,0.0212,0.0247,0.0247,0.0247,0,0.0237,0.026,0.0259,0.0282,0.0298,0.0291,0.0317,0.0322,0.0321,0.0325,0.0315,0.0282,0.0267,0.0259,0.0266,0.0252,0.0227,0.0262,0.0243,0.0242,0.0242,0.0216,0.0212,0.0249,0.0248,0.0248,0.0248,0,0.0269,0.0291,0.0302,0.0327,0.0342,0.0366,0.0379,0.0392,0.0388,0.0385,0.038,0.0346,0.0328,0.0317,0.0296,0.0286,0.0267,0.0246,0.0233,0.0244,0.0216,0.0212,0.0251,0.025,0.025,0.0249,0,0,0.0276,0.0317,0.0322,0.0345,0.0373,0.0389,0.0421,0.0443,0.0458,0.0448,0.0455,0.0428,0.0398,0.0387,0.0349,0.032,0.0289,0.0286,0.0283,0.026,0.0212,0.0192,0.0185,0.0254,0.0254,0.0253,0.0194,0,0.0303,0.0352,0.0366,0.0413,0.0441,0.0454,0.0485,0.0503,0.0504,0.0509,0.0476,0.0467,0.0429,0.0412,0.0377,0.0306,0.028,0.0307,0.0207,0.0205,0.0184,0.0181,0.0252,0.019,0.019,0.0189,0.0188,0,0.0333,0.0363,0.0417,0.0464,0.0478,0.0505,0.0545,0.0576,0.0584,0.058,0.0558,0.0525,0.0485,0.0449,0.0348,0.0362,0.0301,0.0247,0.0242,0.0215,0.0178,0.0178,0.0181,0.0181,0.0182,0.0183,0.0183,0,0.0342,0.0398,0.0441,0.0461,0.0514,0.0542,0.0572,0.0596,0.063,0.0623,0.0624,0.0567,0.0538,0.0452,0.0346,0.0342,0.023,0.0208,0.0137,0.0134,0.0159,0.0159,0.0149,0.0149,0.0149,0.0149,0.015,0,0.0366,0.0402,0.0451,0.0479,0.0537,0.0568,0.0624,0.0643,0.0674,0.0702,0.0661,0.0648,0.0535,0.0458,0.036,0.0235,0.0238,0.0148,0.0117,0.0172,0.0175,0.0155,0.0157,0.0147,0.0148,0.0148,0.0148,0,0.037,0.0404,0.0461,0.0523,0.0546,0.0593,0.067,0.0709,0.0728,0.0759,0.0761,0.0707,0.06,0.0485,0.0338,0.0254,0.0137,0.0095,0.0172,0.0146,0.0064,0.0068,0.0012,0.0011,0.001,0.0009,0.0008,0,0.0379,0.0408,0.0488,0.0531,0.0562,0.0632,0.0685,0.0734,0.0772,0.0786,0.0797,0.072,0.0661,0.0446,0.0319,0.0139,0.0112,0.0053,0.0055,0.0074,0.005,0.0055,0.006,0.0007,0.0006,0.0006,0.0006,0,0.0396,0.0425,0.0469,0.0553,0.0616,0.0688,0.0757,0.0784,0.0835,0.0849,0.0813,0.0714,0.0596,0.0437,0.0299,0.0168,0.0088,0.0041,0.0043,0.0045,0.0067,0.0045,0.0051,0.0002,0.0003,0.0003,0.0003,0,0.0408,0.0438,0.0499,0.0571,0.0651,0.0719,0.0757,0.0794,0.0834,0.0844,0.0823,0.0708,0.0646,0.0452,0.0321,0.0193,0.0159,0.011,0.0107,0.011,0.0152,0.0195,0.0147,0,0,0,0,0,0.0418,0.0449,0.0514,0.0596,0.0674,0.0721,0.0796,0.0828,0.086,0.0837,0.0835,0.0726,0.0535,0.0457,0.0324,0.0296,0.0134,0.0134,0.0076,-0.0018,-0.0014,0.0016,0,0,0,0,0,0,0.0426,0.0479,0.0507,0.06,0.0655,0.0745,0.0791,0.0816,0.0804,0.0812,0.0715,0.068,0.0499,0.0608,0.0317,0.028,0.0221,0.0055,0.0051,-0.002,-0.0016,-0.0013,0.0019,0,0,0,0,0]}]]